Regional Weather Roundup
Issued by NWS Goodland, KS

Home | Current Version | Previous Version | Text Only | Print | Product List | Glossary Off
Versions: 1 2 3 4 5 6 7 8 9 10 11 12 13 14 15 16 17 18 19 20 21 22 23 24 25 26 27 28 29 30 31 32 33 34 35 36 37 38 39 40 41 42 43 44 45 46 47 48 49 50

000
ASUS43 KGLD 021059
RWRGLD

GOODLAND FORECAST AREA HOURLY WEATHER ROUNDUP
NATIONAL WEATHER SERVICE GOODLAND KS
500 AM MDT THU JUL 02 2015

...OFFICIAL OBSERVATIONS...

CITY           SKY/WX    TMP DP  RH WIND       PRES   REMARKS
GOODLAND KS    CLOUDY    66  60  81 NW8       30.05R
HILL CITY KS   MOCLDY    73  66  78 E7        29.95F
IMPERIAL NEB   LGT RAIN  61  57  87 N20G33    30.11R
MCCOOK NEB     HVY RAIN  64  60  87 N30G43    30.05R FOG
AKRON CO       MOCLDY    59  54  83 NE24G36   30.19R
BURLINGTON CO  MOCLDY    62  59  90 NE8       30.08S
LIMON CO       CLEAR     58  55  90 SW6       30.12F
$$

...UNOFFICIAL OBSERVATIONS...

CITY           SKY/WX    TMP DP  RH WIND       PRES   REMARKS
COLBY KS       CLEAR     66  63  88 W6        30.02S
GOVE KS          N/A     70  32  24 MISG        N/A
NORTON KS      MOCLDY    73  64  73 E10       29.96S
SHARON SPRINGS   N/A     67  63  87 CALM        N/A
KIT CARSON CO    N/A     63  59  88 MISG        N/A
YUMA CO          N/A     60  54  81 E17G31      N/A
$$



USA.gov is the U.S. government's official web portal to all federal, state and local government web resources and services.